Regional Weather Roundup
Issued by NWS

Home | Current Version | Previous Version | Graphics & Text | Print | Product List | Glossary On
Versions: 1 2 3 4 5 6 7 8 9 10 11 12 13 14 15 16 17 18 19 20 21 22 23 24 25 26 27 28 29 30 31 32 33 34 35 36 37 38 39 40 41 42 43 44 45 46 47 48 49 50
522
ASUS45 KCYS 251010
RWRWY

WYOMING REGIONAL WEATHER ROUNDUP
NATIONAL WEATHER SERVICE CHEYENNE WY
400 AM MDT SAT MAR 25 2017

NOTE:  "FAIR" INDICATES FEW OR NO CLOUDS BELOW 12,000 FEET
WITH NO SIGNIFICANT WEATHER AND/OR OBSTRUCTIONS TO VISIBILITY.

WYZ001-251100-
YELLOWSTONE NATIONAL PARK

CITY           SKY/WX    TMP DP  RH WIND       PRES   REMARKS
LK YELLOWSTONE   N/A     30  30 100 CALM      30.04F
W YELLOWSTONE  NOT AVBL

$$
WYZ002>013-054>058-071-098>099-251100-
NORTHERN WYOMING

CITY           SKY/WX    TMP DP  RH WIND       PRES   REMARKS
JACKSON        CLOUDY    34  34 100 S9        30.05F WCI  26
CODY           FAIR      47  26  44 W12       29.93R
GREYBULL       FAIR      46  33  60 S3        29.89S
WORLAND        FAIR      42  36  79 CALM      29.89S
SHERIDAN       FAIR      43  35  73 N6        29.84R
BUFFALO        FAIR      48  24  39 CALM      29.86F
GILLETTE       FAIR      43  30  60 S17       29.87R
HULETT         FAIR      48  28  46 S16G22    29.88S
NEWCASTLE      FAIR      41  27  56 E18G25    29.97F

$$
WYZ014>020-022>026-101>103-251100-
CENTRAL WYOMING

CITY           SKY/WX    TMP DP  RH WIND       PRES   REMARKS
BIG PINEY      CLOUDY    30  27  88 N9        30.06F WCI  22
PINEDALE       CLOUDY    32  30  93 CALM      30.07F
DUBOIS         PTSUNNY   34  28  80 NW13G23   29.98F WCI  25
LANDER         FAIR      41  26  55 S9        29.94F
RIVERTON       FAIR      42  28  57 W6        29.95F
CASPER         FAIR      46  25  43 SW16      29.96S
DOUGLAS        FAIR      35  28  75 S8        29.95F WCI  29

$$
WYZ021-027>030-104>119-251100-
SOUTHERN WYOMING

CITY           SKY/WX    TMP DP  RH WIND       PRES   REMARKS
EVANSTON       FAIR      37  20  50 SW6       30.04F WCI  32
KEMMERER         N/A     34  27  75 NW9       30.06F WCI  26
FORT BRIDGER   FAIR      38  29  70 SE3       30.08F
ROCK SPRINGS   FAIR      40  30  67 CALM      30.05F
DIXON            N/A     35  25  67 E9        30.12F WCI  27
RAWLINS        FAIR      42  23  46 SW14      30.06S
SARATOGA       FAIR      36  23  60 SE13G18   30.09S WCI  27
LARAMIE        FAIR      30  21  69 S6        30.06F WCI  24
CHEYENNE       FAIR      28  24  85 SW7       30.05F WCI  21
TORRINGTON     FAIR      29  24  82 E7        30.00F WCI  22
PINE BLUFFS    FAIR      23  21  93 S8        30.06F WCI  14

$$




USA.gov is the U.S. government's official web portal to all federal, state and local government web resources and services.